Location: ???????
(54.6339°N, 39.4245°E)
Time: 04:45:40
(UTC+00:00)

Cosmos 1980 Rocket - Pass Details

Date: 19 May 2025
Orbit: 829 x 847 km, 71.0° (Epoch: 19 June)

Event Time Altitude Azimuth Distance (km) Brightness Sun altitude
Rises 20:47:26 0° 318° (NW) 3,384 6.3 -15.1°
Reaches altitude 10° 20:50:49 10° 297° (WNW) 2,446 5.1 -15.2°
Maximum altitude 20:54:02 16° 262° (W) 2,062 4.2 -15.2°
Drops below altitude 10° 20:57:14 10° 227° (SW) 2,440 4.2 -15.3°
Enters shadow 20:57:32 - 224° (SW) 2,508 4.3 -15.3°
